TimeEDT,TemperatureF,Dew PointF,Humidity,Sea Level PressureIn,VisibilityMPH,Wind Direction,Wind SpeedMPH,Gust SpeedMPH,PrecipitationIn,Events,Conditions,WindDirDegrees,DateUTC
12:17 AM,66.2,66.2,100,30.12,1.0,North,4.6,-,0.00,Rain,Light Rain,10,2012-10-04 04:17:00
12:36 AM,66.2,64.4,94,30.11,2.0,NNE,4.6,-,0.00,,Overcast,30,2012-10-04 04:36:00
12:46 AM,66.2,64.4,94,30.11,1.0,NE,3.5,-,0.00,,Overcast,50,2012-10-04 04:46:00
12:54 AM,66.2,64.4,94,30.11,0.8,ENE,4.6,-,0.00,,Overcast,60,2012-10-04 04:54:00
12:56 AM,66.9,64.9,93,30.11,0.8,ENE,3.5,-,0.00,,Overcast,70,2012-10-04 04:56:00
1:15 AM,66.2,64.4,94,30.12,1.5,North,3.5,-,N/A,,Overcast,10,2012-10-04 05:15:00
1:21 AM,66.2,64.4,94,30.12,3.0,NNE,3.5,-,N/A,,Overcast,30,2012-10-04 05:21:00
1:45 AM,66.2,64.4,94,30.12,1.8,North,4.6,-,N/A,,Overcast,10,2012-10-04 05:45:00
1:56 AM,66.0,64.9,96,30.12,2.0,North,5.8,-,N/A,,Overcast,10,2012-10-04 05:56:00
2:05 AM,66.2,64.4,94,30.11,1.2,NNE,4.6,-,N/A,,Overcast,20,2012-10-04 06:05:00
2:23 AM,64.4,64.4,100,30.11,3.0,NNE,5.8,-,N/A,,Overcast,20,2012-10-04 06:23:00
2:56 AM,64.9,63.0,93,30.12,3.0,North,3.5,-,N/A,,Overcast,360,2012-10-04 06:56:00
3:10 AM,64.4,62.6,94,30.12,2.5,North,4.6,-,N/A,,Overcast,10,2012-10-04 07:10:00
3:26 AM,64.4,62.6,94,30.12,1.5,North,4.6,-,N/A,,Overcast,10,2012-10-04 07:26:00
3:56 AM,64.0,63.0,96,30.11,1.5,NE,4.6,-,N/A,,Overcast,40,2012-10-04 07:56:00
4:15 AM,64.4,62.6,94,30.12,2.0,North,3.5,-,N/A,,Overcast,350,2012-10-04 08:15:00
4:53 AM,64.4,62.6,94,30.12,3.0,North,5.8,-,N/A,,Overcast,360,2012-10-04 08:53:00
4:56 AM,64.0,62.1,93,30.12,4.0,NNE,5.8,-,N/A,,Overcast,20,2012-10-04 08:56:00
5:56 AM,64.0,62.1,93,30.12,4.0,North,4.6,-,N/A,,Overcast,360,2012-10-04 09:56:00
6:44 AM,64.4,62.6,94,30.13,4.0,North,3.5,-,N/A,,Overcast,350,2012-10-04 10:44:00
6:56 AM,64.0,62.1,93,30.12,5.0,North,5.8,-,N/A,,Overcast,10,2012-10-04 10:56:00
7:56 AM,64.0,62.1,93,30.13,4.0,NE,3.5,-,N/A,,Overcast,40,2012-10-04 11:56:00
8:56 AM,64.9,62.1,90,30.14,5.0,Calm,Calm,-,N/A,,Overcast,0,2012-10-04 12:56:00
9:56 AM,66.0,62.1,87,30.14,6.0,North,4.6,-,N/A,,Overcast,360,2012-10-04 13:56:00
10:56 AM,66.9,63.0,87,30.13,6.0,NNE,5.8,-,N/A,,Overcast,20,2012-10-04 14:56:00
11:56 AM,68.0,63.0,84,30.13,7.0,NNE,4.6,-,N/A,,Overcast,20,2012-10-04 15:56:00
12:56 PM,69.1,63.0,81,30.09,8.0,NNE,5.8,-,N/A,,Overcast,30,2012-10-04 16:56:00
1:08 PM,69.8,64.4,83,30.09,8.0,NNE,4.6,-,N/A,,Overcast,20,2012-10-04 17:08:00
1:56 PM,70.0,64.0,81,30.07,9.0,Calm,Calm,-,N/A,,Mostly Cloudy,0,2012-10-04 17:56:00
2:03 PM,69.8,64.4,83,30.07,9.0,Calm,Calm,-,N/A,,Overcast,0,2012-10-04 18:03:00
2:56 PM,69.1,64.0,84,30.06,8.0,SSE,4.6,-,0.00,,Overcast,150,2012-10-04 18:56:00
3:10 PM,69.8,64.4,83,30.06,8.0,SSW,4.6,-,N/A,,Scattered Clouds,210,2012-10-04 19:10:00
3:41 PM,66.2,64.4,94,30.05,6.0,SSW,6.9,-,N/A,,Mostly Cloudy,200,2012-10-04 19:41:00
3:56 PM,66.9,64.0,90,30.06,5.0,SSW,6.9,-,N/A,,Overcast,210,2012-10-04 19:56:00
4:56 PM,66.9,64.0,90,30.07,5.0,SW,9.2,-,N/A,,Overcast,230,2012-10-04 20:56:00
5:10 PM,66.2,64.4,94,30.06,5.0,SW,8.1,-,N/A,,Overcast,230,2012-10-04 21:10:00
5:56 PM,66.9,64.0,90,30.05,5.0,WSW,3.5,-,N/A,,Overcast,240,2012-10-04 21:56:00
6:07 PM,66.2,64.4,94,30.06,5.0,WSW,4.6,-,N/A,,Overcast,250,2012-10-04 22:07:00
6:56 PM,66.9,64.0,90,30.05,4.0,Calm,Calm,-,N/A,,Overcast,0,2012-10-04 22:56:00
7:56 PM,66.9,64.0,90,30.05,5.0,Calm,Calm,-,N/A,,Overcast,0,2012-10-04 23:56:00
8:56 PM,66.0,64.0,93,30.04,3.0,Calm,Calm,-,0.00,Rain,Light Rain,0,2012-10-05 00:56:00
9:03 PM,66.2,64.4,94,30.04,3.0,SSE,3.5,-,0.00,Rain,Light Rain,150,2012-10-05 01:03:00
9:32 PM,66.2,64.4,94,30.05,4.0,Calm,Calm,-,0.00,Rain,Light Rain,0,2012-10-05 01:32:00
9:56 PM,66.2,64.4,94,30.05,4.0,NNE,5.8,-,N/A,,Overcast,20,2012-10-05 01:56:00
10:18 PM,66.2,64.4,94,30.05,3.0,ESE,3.5,-,0.00,Rain,Light Rain,110,2012-10-05 02:18:00
10:56 PM,64.9,63.0,93,30.03,5.0,SSE,9.2,-,0.00,,Overcast,160,2012-10-05 02:56:00
11:56 PM,66.0,64.0,93,30.04,3.0,WSW,3.5,-,0.00,,Overcast,250,2012-10-05 03:56:00